Location: Waverly
(35.0470°N, 90.2390°W)
Time: 05:48:26
(UTC+00:00)

Daily predictions for brighter satellites

Satellite Brightness Start Highest point End
(mag) Time Altitude Azimuth Time Altitude Azimuth Time Altitude Azimuth
PSLV R/B 4.2 00:00:18 10° SE 00:03:49 29° ENE 00:07:19 10° NNE
Okean 2 Rocket 3.8 00:02:23 10° SSE 00:06:13 29° E 00:08:01 22° NE
RESURS DK-1 3.6 00:03:31 10° N 00:05:59 21° NE 00:05:59 21° NE
BREEZE M DEB (TANK) 4.1 00:06:47 10° S 00:09:07 16° SE 00:09:18 16° SE
Nadezhda 4 Rocket 4.5 00:05:36 10° NNE 00:11:17 35° ENE 00:16:52 10° SE
Geosat FO 3.8 00:09:18 10° SSE 00:12:12 81° ENE 00:15:05 10° NNW
ISS -1.9 00:09:33 10° W 00:12:22 25° NW 00:14:17 15° NNE
SJ 16-02 1.7 00:09:38 10° S 00:13:38 38° E 00:15:05 29° ENE
CZ-2D R/B 3.4 00:09:41 10° SSE 00:13:39 58° ENE 00:17:45 10° N
Spot 4 Rocket 4.0 00:10:56 10° SSE 00:15:52 54° ENE 00:20:50 10° N
Helios 1A Rocket 2.4 00:17:58 12° N 00:21:03 78° WNW 00:24:24 10° SSW
USA 215 3.6 00:17:54 10° SE 00:24:23 68° SW 00:30:54 10° NW
ATLAS 5 CENTAUR R/B 1.9 00:20:01 10° NNW 00:24:50 82° ENE 00:30:48 10° SSE
Cosmos 1833 Rocket 3.6 00:23:39 10° NNW 00:29:04 50° WSW 00:34:29 10° S
Cosmos 371 Rocket 3.4 00:26:16 10° S 00:30:50 47° ESE 00:31:38 43° ENE
Aureole 3 Rocket 3.7 00:27:58 10° SSW 00:31:03 38° W 00:33:55 10° N
MOS 1 Rocket 3.8 00:27:09 10° S 00:31:18 54° W 00:35:34 10° NNW
Cosmos 1656 Rocket 4.2 00:29:14 10° SSE 00:33:51 34° ESE 00:33:51 34° ESE
Cosmos 2058 2.6 00:30:40 10° N 00:34:37 68° E 00:38:34 10° SSE
Cosmos 304 Rocket 3.6 00:35:02 10° S 00:39:40 63° ESE 00:40:27 53° ENE
NOAA 6 4.0 00:36:01 10° SSE 00:41:05 60° ENE 00:46:08 10° N
Cosmos 1763 Rocket 3.5 00:38:01 10° NNW 00:43:13 82° WSW 00:48:19 10° SSE
Cosmos 540 Rocket 3.3 00:40:51 10° NNW 00:45:59 88° ENE 00:51:04 10° SSE
Cosmos 1464 Rocket 4.2 00:41:40 10° S 00:47:58 75° W 00:54:16 10° N
Cosmos 2151 Rocket 4.0 00:43:50 10° SSW 00:48:14 63° W 00:52:22 12° N
OAO 3 Rocket 2.9 00:44:27 10° W 00:49:06 85° S 00:49:21 79° ESE
Cosmos 1400 Rocket 2.8 00:45:22 10° SSW 00:49:09 71° W 00:49:28 66° NW
Cosmos 2251 Rocket 4.2 00:45:29 10° SSW 00:50:35 52° WNW 00:55:23 12° N
SL-19 R/B 4.2 00:49:09 10° S 00:54:26 75° WSW 00:59:38 10° NNW
Sich 1 Rocket 3.5 00:50:39 10° S 00:55:09 86° W 00:55:44 67° N
Centaur AC-119 4.5 00:50:52 10° WSW 00:57:25 46° S 01:00:28 34° SE
Cosmos 2034 Rocket 3.8 00:53:05 10° S 00:59:14 88° E 01:05:30 10° N
Geosat 4.3 01:00:33 52° N 01:00:33 52° N 01:04:29 10° NNW
USA 281 4.2 01:07:16 30° NNE 01:07:16 30° NNE 01:10:57 10° N
Meteor 2-1 Rocket 4.2 00:59:42 10° S 01:05:32 84° E 01:07:23 47° NNE
Okean 1 Rocket 3.4 01:02:20 10° SSW 01:06:42 63° W 01:06:42 63° W
Cosmos 2082 Rocket 2.9 01:24:17 10° NNW 01:28:04 44° NNW 01:28:04 44° NNW
Cosmos 2344 4.5 01:39:45 10° NNW 01:45:44 44° NNE 01:45:44 44° NNE
SJ 16-02 4.1 01:49:23 10° W 01:51:41 15° WNW 01:51:41 15° WNW
SL-16 R/B 4.4 09:30:48 10° SSE 09:32:31 20° SSE 09:32:31 20° SSE
SL-16 R/B 4.3 09:36:40 10° SSE 09:40:58 23° E 09:45:18 10° NE
Cosmos 1802 Rocket 4.0 10:06:58 32° N 10:10:03 77° E 10:16:14 10° S
SJ 16-02 3.5 10:18:05 13° NNE 10:20:56 23° ENE 10:24:19 10° ESE
Cosmos 2237 Rocket 4.0 10:24:59 18° N 10:24:59 18° N 10:26:28 10° N
Cosmos 2056 Rocket 3.6 10:21:55 33° S 10:24:23 77° ESE 10:29:47 10° NNE
Cosmos 2278 Rocket 2.3 10:25:22 57° SSW 10:25:22 57° SSW 10:30:00 10° S
Cosmos 1943 Rocket 2.6 10:28:04 44° SSW 10:28:04 44° SSW 10:31:58 10° S
USA 229 DEB 3.8 10:23:41 14° SSW 10:28:30 60° ESE 10:34:38 10° NE
USA 229 3.8 10:23:47 13° SSW 10:28:43 59° ESE 10:34:49 10° NE
Cosmos 2016 Rocket 3.9 10:26:29 10° N 10:32:51 83° W 10:39:08 10° S
Cosmos 407 Rocket 3.6 10:33:46 55° SSW 10:33:46 55° SSW 10:37:58 10° S
Cosmos 1932 4.4 10:36:40 35° NNW 10:39:39 85° WSW 10:46:08 10° SSE
USA 267 3.6 10:33:57 10° NNE 10:40:02 43° NW 10:40:53 41° WNW
Cosmos 1782 Rocket 3.3 10:42:02 74° NNW 10:42:23 85° W 10:46:42 10° S
IRS-1D 4.0 10:38:52 10° NNE 10:43:44 58° ESE 10:48:34 10° S
Cosmos 1371 Rocket 3.9 10:41:01 28° SSW 10:43:52 72° WNW 10:49:11 10° NNE
Iridium 4 Rocket 3.0 10:47:39 57° SW 10:47:39 57° SW 10:51:08 10° S
ATLAS 3B R/B 2.9 10:41:54 10° SSW 10:49:14 89° ESE 10:57:05 10° NNE
Cosmos 1300 Rocket 3.7 10:51:06 51° SW 10:51:06 51° SW 10:54:37 10° S
FengYun 1-2 T 4.1 10:44:49 10° NNE 10:50:26 86° WNW 10:56:04 10° SSW
Cosmos 1869 4.2 10:47:38 13° NNE 10:50:30 41° E 10:53:49 10° SSE
Cosmos 371 Rocket 4.3 10:45:56 10° N 10:50:35 45° ENE 10:55:11 10° SE
Delta 142 4.5 10:53:05 30° SSW 10:53:57 33° S 10:57:38 10° ESE
Chandra Rocket (1) 3.6 10:54:13 29° SW 10:56:29 46° S 11:09:40 10° ESE
Cosmos 1812 4.3 10:54:19 10° NNE 10:56:48 25° E 10:59:15 10° SE
Cosmos 304 Rocket 4.3 10:53:32 10° N 10:58:13 57° ENE 11:02:53 10° SSE
CZ-4 R/B 3.9 10:54:15 10° NNE 10:59:03 76° ESE 11:03:44 10° S
Cosmos 1378 Rocket 4.0 10:59:54 10° S 11:04:04 59° E 11:08:17 10° NNE
Cosmos 2242 Rocket 3.4 11:03:38 10° SSW 11:07:59 71° W 11:12:23 10° N
ATLAS CENTAUR Rocket 4.3 11:08:11 10° SSW 11:11:09 18° SE 11:15:35 10° E
NOAA 12 4.1 11:06:26 10° NNE 11:11:47 89° WNW 11:17:05 10° SSW
Cosmos 1656 Rocket 3.9 11:06:37 10° NNW 11:12:19 74° ENE 11:17:56 10° SSE
USA 234 4.0 11:06:36 10° ESE 11:12:49 47° NE 11:19:01 10° NNW
In-Cosmos 22 Rocket 4.2 11:08:18 10° SSW 11:14:06 75° W 11:19:55 10° N
CZ-3 R/B 2.8 11:03:33 15° WSW 11:16:57 55° S 11:22:32 10° ESE
Cosmos 2251 Rocket 3.9 11:18:51 16° NW 11:22:42 42° WSW 11:27:42 10° S
SL-16 R/B 2.5 11:19:22 10° SW 11:24:43 42° WNW 11:30:06 10° N
Cosmos 2061 Rocket 4.2 11:20:08 10° NNW 11:26:00 46° W 11:31:51 10° SSW
H-2A R/B 3.2 11:31:29 13° SW 11:33:23 28° S 11:38:59 10° ESE
Cosmos 1452 Rocket 3.5 11:28:14 10° SSW 11:33:27 86° ESE 11:38:42 10° NNE
Aureole 3 Rocket 4.2 11:30:44 10° NNW 11:36:31 74° W 11:44:30 10° S
Cosmos 1331 Rocket 4.1 11:41:59 10° SSW 11:47:06 53° WNW 11:52:14 10° N
Cosmos 1464 Rocket 4.1 11:41:26 10° N 11:47:35 79° E 11:53:41 10° S
SKYMED 2 4.1 11:51:15 10° SSW 11:55:15 37° W 11:59:18 10° NNW
Hubble Space Telescope 3.5 11:54:17 10° S 11:55:34 11° SSE 11:56:50 10° SE
